Theta_e
323 325 334 332 332 330 332 329 333 334 341 345 343 344 344 343 344 348 350 348 347 345 342 344 348 349 351 352 353 352 351 352 351 349 349 347 349 348 347 348 346 345 347 348
328 331 333 332 333 334 335 334 333 334 336 337 341 342 344 344 347 349 349 348 347 345 344 344 347 349 350 352 351 352 351 350 349 349 349 346 348 349 347 347 347 347 348 345
331 330 330 335 332 332 333 335 333 334 332 333 340 343 344 343 346 348 348 347 346 344 343 345 347 348 349 350 350 350 349 348 349 349 346 343 339 348 347 345 345 345 345 345
332 332 336 329 328 331 333 334 333 334 334 336 341 341 341 342 342 348 347 346 344 342 344 343 342 345 346 345 344 346 347 347 347 348 346 343 343 344 344 345 340 342 339 336
334 334 332 333 334 335 335 334 334 335 334 334 338 340 342 340 341 345 345 343 342 340 342 339 337 338 337 337 340 342 343 346 345 345 345 345 344 342 341 339 336 336 335 336
331 335 337 332 333 332 331 335 334 336 336 335 340 345 342 338 341 343 342 342 340 341 342 342 339 333 332 334 335 336 336 339 342 342 341 342 340 340 338 336 342 343 344 341
328 332 331 331 333 331 335 334 333 333 333 335 339 338 335 337 342 342 342 342 342 342 342 341 341 337 336 337 337 338 340 339 339 340 341 340 338 338 335 341 341 339 339 338
328 330 332 333 335 333 330 329 334 340 341 337 339 341 341 343 343 342 341 341 341 340 339 339 340 341 341 344 345 344 344 342 342 341 341 341 341 340 337 339 338 338 336 333
333 331 332 331 332 328 328 330 331 341 342 345 345 347 346 345 343 342 342 342 342 343 343 342 342 343 344 343 343 342 340 339 338 338 338 339 340 340 340 338 337 335 334 332
330 331 332 331 329 330 328 329 332 333 344 348 349 347 347 345 344 343 342 342 342 341 338 337 340 342 341 342 340 337 336 336 336 335 336 335 336 336 336 336 334 334 332 330
327 327 330 333 331 330 330 329 332 333 339 348 347 346 345 344 341 340 341 342 342 339 336 336 339 339 338 337 337 336 335 334 335 335 334 332 332 331 332 334 334 334 333 331
327 324 327 327 328 330 330 329 330 335 336 342 346 345 342 340 337 337 336 338 337 337 336 336 336 336 334 334 333 334 335 334 333 331 331 329 328 326 329 329 330 330 330 331
326 326 326 327 330 329 330 329 332 334 334 339 343 341 338 334 335 335 334 335 335 336 337 335 334 331 332 334 332 333 337 337 334 330 329 330 328 328 327 327 328 328 328 329
324 327 328 329 329 328 329 329 334 335 340 342 340 338 336 335 334 334 333 333 335 335 335 334 332 332 332 331 331 333 336 335 335 335 332 331 330 329 329 329 327 326 326 326
320 324 325 327 328 330 331 334 336 338 337 339 339 337 336 335 334 334 334 334 334 334 333 332 333 333 333 332 331 334 335 334 334 334 333 333 332 332 330 329 328 326 325 325
321 322 324 327 327 332 333 335 334 338 338 337 338 338 337 336 335 335 334 334 332 332 333 333 334 334 333 333 333 334 333 333 333 332 332 332 332 333 331 331 329 327 325 324
326 325 326 325 331 332 333 333 334 335 337 333 337 337 335 335 333 330 331 332 331 331 330 332 334 334 334 333 334 334 335 333 333 334 333 332 332 333 332 331 331 329 326 323
322 324 323 328 330 332 333 333 334 333 332 332 335 334 333 331 329 327 328 331 332 333 332 333 333 333 333 333 334 334 334 332 333 333 333 332 332 331 331 331 331 330 330 329
323 322 329 330 330 329 330 331 332 331 332 333 333 332 331 329 328 328 327 332 334 333 333 333 334 333 332 332 335 334 335 335 331 332 332 332 331 331 330 330 329 330 330 330
326 325 331 330 329 329 329 333 333 333 334 334 331 332 331 329 328 328 328 331 333 333 333 334 334 333 332 333 334 335 332 333 333 331 329 331 331 328 322 322 324 327 328 326
323 325 332 331 332 332 333 333 332 332 333 332 333 332 331 330 329 328 327 326 331 331 331 332 332 331 332 332 328 327 326 324 325 327 328 328 327 322 322 322 321 323 322 320
326 327 330 333 332 333 333 333 332 331 331 333 334 332 331 329 329 329 328 327 328 330 331 332 332 331 332 331 329 327 325 323 322 325 326 324 322 322 322 323 322 322 321 320
326 326 331 334 333 333 333 332 331 332 331 329 334 335 331 331 330 332 331 329 330 330 329 331 330 330 328 329 328 328 326 321 320 320 324 324 324 322 322 322 322 322 323 323
325 331 331 330 333 330 331 331 331 330 330 329 333 336 335 335 333 332 332 331 332 334 334 332 331 329 325 325 326 327 327 325 324 324 328 324 324 323 322 323 324 324 323 323
328 330 330 330 329 328 330 331 330 330 329 329 329 331 334 337 337 336 335 333 333 335 334 331 330 329 329 328 327 327 326 325 325 326 328 324 325 325 325 325 326 326 327 326
326 326 328 329 329 329 329 329 327 327 328 327 327 328 328 328 328 330 332 337 336 336 334 331 330 330 330 328 327 326 326 325 325 326 326 328 327 327 327 327 327 327 327 327
329 327 326 328 329 330 327 327 329 328 330 329 328 331 332 333 333 334 335 336 335 332 331 330 329 329 326 326 327 326 327 327 328 328 328 328 328 329 328 327 327 327 326 326
Wind_Speed
7 7 5 5 4 7 4 6 5 4 7 12 18 17 18 15 13 12 10 8 7 7 7 12 8 4 3 9 15 31 30 34 34 34 27 20 27 30 29 28 33 33 32 32
5 7 8 5 1 3 7 8 6 3 2 2 4 12 13 16 15 13 10 10 9 7 7 8 6 4 2 4 8 9 29 33 34 32 28 29 22 24 24 18 19 21 30 32
3 2 4 1 8 6 5 5 6 4 7 4 6 13 17 15 16 14 12 12 10 8 8 8 7 4 4 1 3 6 8 9 24 30 30 28 20 19 22 23 18 18 22 23
3 3 3 8 6 7 7 4 6 3 5 9 18 20 16 13 14 12 12 11 9 11 14 13 10 8 7 8 10 11 9 11 16 20 21 22 24 23 27 28 28 27 23 24
3 3 5 1 1 6 7 7 6 6 4 2 8 5 1 10 15 17 14 14 17 24 23 19 15 13 13 14 14 13 12 9 8 12 15 18 19 19 23 14 12 24 29 25
2 2 3 7 4 6 5 3 5 1 2 1 11 10 11 11 15 13 17 21 22 27 25 21 17 16 17 15 15 15 13 11 7 7 8 16 20 9 13 5 4 7 13 7
4 3 6 8 8 2 7 7 7 9 9 7 13 8 8 9 8 17 22 23 25 27 26 22 18 15 13 12 10 10 10 9 8 7 4 6 11 13 11 8 6 8 18 14
2 4 6 12 6 1 7 8 7 6 6 12 8 9 15 12 15 16 16 23 24 23 22 20 18 13 10 10 12 12 10 9 7 5 5 4 3 5 7 6 4 8 11 10
4 3 1 1 4 4 10 7 12 6 11 14 15 12 17 15 16 15 21 20 23 24 21 16 13 13 19 16 17 15 11 9 7 6 5 7 7 9 11 13 13 12 11 10
4 3 2 6 2 4 9 12 15 13 6 17 17 17 16 14 13 12 17 18 22 24 21 15 13 15 17 18 14 14 13 9 8 8 11 9 9 8 10 10 12 11 11 10
4 7 5 2 1 3 9 14 16 17 10 16 21 16 18 14 10 11 16 21 24 23 21 18 16 14 13 12 8 9 11 14 12 11 10 11 11 10 8 8 8 9 8 9
5 6 4 7 7 4 6 9 13 11 15 8 19 17 15 13 13 16 18 22 23 24 23 19 16 14 12 12 11 10 13 16 15 15 13 10 11 13 11 10 8 9 9 7
5 3 6 6 5 6 7 5 11 13 9 11 10 18 16 14 14 22 23 26 26 27 22 18 16 13 11 12 10 13 14 14 16 14 15 14 11 10 12 10 8 8 8 8
7 4 4 5 6 4 8 11 14 15 11 5 10 21 24 18 22 23 22 28 28 25 21 17 15 14 13 12 11 13 13 12 14 15 13 11 10 10 10 9 7 6 6 5
9 10 12 5 6 7 4 3 8 1 4 2 4 14 22 16 13 19 25 26 26 25 21 17 16 15 14 14 13 13 14 13 13 15 11 11 10 10 9 7 7 6 7 7
8 8 8 11 13 9 7 5 4 4 4 6 14 16 22 23 22 24 27 28 26 20 21 19 18 17 15 16 14 13 10 13 12 11 12 12 10 8 10 9 9 8 8 8
5 6 7 7 9 9 13 10 15 11 6 2 7 18 24 21 21 22 27 32 27 25 22 20 19 19 17 16 16 15 13 13 12 9 10 9 9 11 10 8 9 9 9 8
11 9 8 8 8 6 7 9 14 9 5 3 9 21 22 20 16 22 27 24 25 23 22 19 19 19 18 17 17 16 14 15 13 11 10 10 10 10 11 12 14 13 12 11
11 12 9 10 9 8 6 7 5 11 4 7 12 19 25 24 26 29 26 23 23 22 24 21 19 19 18 18 16 14 13 15 15 15 13 11 10 11 14 14 16 18 15 15
11 11 12 9 13 4 8 7 9 4 4 10 17 17 17 22 29 28 26 22 27 26 24 22 21 21 18 16 16 14 12 16 16 15 16 15 14 12 10 8 14 21 20 21
10 11 14 15 9 4 3 15 15 9 10 18 19 18 20 27 30 29 21 11 24 23 24 23 24 21 20 18 15 14 13 9 5 14 19 19 16 9 4 9 12 18 22 24
7 6 8 10 14 13 18 19 10 4 4 13 19 22 24 23 28 28 28 24 25 22 23 27 27 23 23 20 18 14 13 11 3 17 23 20 15 13 11 9 10 13 21 22
3 4 11 11 15 23 30 27 20 16 9 12 15 24 24 24 25 17 8 26 22 24 25 28 28 24 21 22 18 15 12 11 8 5 17 23 20 16 16 14 13 12 13 19
3 7 11 21 27 21 16 27 36 35 44 14 18 22 27 19 17 21 21 25 23 22 26 27 30 25 21 22 20 19 17 14 9 9 10 21 27 23 20 13 13 13 10 8
10 7 19 16 15 12 23 24 28 20 16 13 14 16 16 15 16 8 17 22 26 22 25 24 26 26 24 24 22 21 18 14 10 8 8 13 18 17 14 13 12 11 10 8
13 9 15 18 17 16 10 9 5 4 7 11 8 2 3 4 8 14 13 19 26 28 29 28 25 23 23 23 21 18 14 13 13 11 11 11 12 12 12 12 11 10 9 8
14 14 8 11 14 18 17 8 2 1 6 8 9 7 6 6 3 4 4 13 18 18 16 16 11 11 10 11 10 7 4 3 5 8 14 12 9 6 2 2 4 8 10 11
Wind_Direction
197 220 178 209 208 145 131 168 135 252 175 220 181 182 170 158 150 132 142 131 124 121 121 110 105 112 187 213 224 231 219 222 223 231 221 246 245 232 231 229 235 232 230 228
199 180 191 220 204 132 147 133 151 147 202 50 336 144 150 157 151 156 155 137 127 107 84 86 80 63 108 220 227 225 224 225 227 230 227 217 218 216 230 229 227 235 242 239
268 56 115 42 194 194 204 164 159 126 211 178 173 189 169 170 165 160 158 150 140 136 135 125 119 93 71 106 150 187 194 171 216 213 208 216 217 224 213 235 251 248 260 267
217 45 274 236 237 203 194 120 145 158 259 165 193 196 173 167 157 159 162 149 142 136 143 141 141 138 111 96 96 106 147 187 210 206 210 213 213 217 223 228 248 259 270 281
140 178 278 325 172 149 160 235 183 204 306 120 124 112 82 173 165 171 170 161 156 154 152 142 131 124 112 99 97 100 103 112 162 191 195 205 199 207 213 219 272 270 266 270
138 123 212 238 238 163 120 261 161 233 328 277 135 171 206 186 167 166 153 153 148 151 150 145 141 131 116 110 102 99 95 94 136 171 176 203 190 181 206 257 31 220 188 227
175 186 278 340 275 236 124 231 170 164 210 168 186 202 160 137 147 149 149 142 148 153 152 153 156 151 143 138 132 125 110 100 101 111 141 199 221 244 217 144 104 80 105 102
177 160 236 353 349 161 321 305 204 165 135 167 167 131 139 139 138 140 140 145 153 154 156 165 169 167 155 132 140 147 132 125 123 97 82 111 113 176 207 211 184 152 108 122
182 193 169 69 144 281 12 16 318 292 154 144 136 142 141 141 142 146 151 152 153 147 145 147 156 164 148 145 143 135 126 124 134 135 127 120 124 119 122 139 146 145 139 141
360 89 183 269 183 356 346 347 325 339 179 140 138 139 137 136 141 141 145 146 151 141 136 128 129 136 133 141 137 129 126 138 139 131 121 120 117 115 129 132 139 146 144 147
266 291 302 212 168 282 326 335 346 348 304 156 144 151 142 144 144 145 147 148 151 144 142 139 137 136 137 142 143 149 140 142 146 141 134 123 119 115 115 125 130 137 142 143
230 241 189 261 303 289 282 334 333 350 324 285 147 147 146 144 149 148 145 149 143 150 151 150 149 148 149 153 156 171 162 152 154 150 147 135 122 114 118 112 109 120 126 138
234 223 206 263 268 291 282 338 324 318 275 271 190 142 142 138 141 139 141 145 150 158 160 159 158 157 162 159 157 175 170 171 164 164 154 146 146 138 127 120 114 102 92 99
233 182 273 220 260 223 291 330 345 286 251 181 184 146 144 135 144 147 152 156 158 160 161 165 164 166 164 158 162 177 153 163 178 177 168 162 153 145 145 141 140 128 122 123
243 211 235 201 213 265 266 113 270 311 1 108 254 158 140 145 153 157 160 159 159 161 165 169 167 170 171 164 172 169 161 162 163 174 176 172 171 179 173 172 173 172 172 172
239 226 220 211 233 208 265 29 292 251 120 27 229 174 152 156 151 156 162 162 152 164 170 175 178 174 176 181 182 179 177 176 169 167 165 175 185 193 197 184 183 193 196 194
231 267 267 227 208 202 190 195 214 223 173 162 242 146 139 135 139 150 160 169 168 167 175 179 182 178 181 183 186 184 183 179 182 191 196 189 188 190 195 192 198 199 195 192
220 231 240 199 193 199 201 173 167 199 186 320 264 153 132 142 156 161 165 168 171 170 178 187 185 185 191 193 191 189 188 189 196 198 203 206 215 213 214 202 209 215 217 208
237 227 179 182 192 174 177 145 177 162 281 218 193 161 152 155 159 164 167 165 167 168 187 187 186 185 188 199 200 201 208 207 203 207 211 217 236 235 239 221 231 228 225 221
216 194 172 174 205 182 140 131 58 31 201 170 190 152 148 157 165 168 174 168 177 182 182 186 190 197 197 202 213 220 224 225 227 229 227 222 236 242 213 244 227 230 230 219
180 189 168 179 188 171 164 110 88 43 101 175 192 156 158 167 174 177 172 172 189 190 188 187 189 198 203 204 198 207 230 239 292 231 229 213 216 215 234 202 209 206 214 217
181 172 134 130 135 137 133 124 132 80 106 160 170 161 162 173 179 181 190 188 192 191 196 195 196 202 206 212 218 222 224 228 246 201 198 196 204 214 226 223 225 223 222 225
213 176 135 158 157 145 141 157 186 186 245 211 182 169 174 183 178 167 193 203 195 198 204 206 207 209 214 213 224 233 237 239 250 263 229 217 213 221 226 234 242 243 262 247
41 40 124 145 155 159 165 179 169 164 210 222 190 186 182 181 190 200 206 197 197 206 210 214 206 204 202 209 221 231 236 239 254 267 292 226 225 230 248 247 246 240 221 220
34 78 129 149 159 177 183 189 185 200 215 209 199 195 184 184 194 210 222 219 207 208 211 213 211 208 213 222 228 228 226 236 240 263 297 221 195 187 199 200 205 197 180 177
62 58 84 98 101 92 129 160 179 223 217 226 221 181 220 233 259 265 289 242 226 213 210 207 205 211 219 230 232 233 247 264 258 254 257 247 239 233 211 202 210 213 225 245
69 70 64 90 100 84 70 45 204 71 146 140 109 99 131 120 124 159 181 216 211 210 217 196 205 214 202 194 190 170 174 134 138 129 105 98 97 100 121 171 244 277 283 280